.
WxDataArchive / Data Records for 2011-06-16
2011-06-15 June 2011 2011-06-17

Data Records for Thursday, 16 June 2011

Time	Temp	Chill	HIndex	Humid	Dewpt	 Wind 	HiWind	WindDir	Rain 	Barom 
-----	----	-----	------	-----	-----	------	------	-------	-----	----- 
00:00	64.3	64.3	64.3	83	59.0	0	0	---	0.00	29.763 
00:05	64.3	64.3	64.3	83	59.0	0	1	68	0.00	29.763 
00:10	64.3	64.3	64.3	83	59.0	0	1	68	0.00	29.763 
00:15	64.3	64.3	64.3	83	59.0	0	1	68	0.00	29.763 
00:20	64.3	64.3	64.3	83	59.0	0	2	68	0.00	29.763 
00:25	64.5	64.5	64.5	82	58.9	0	1	68	0.00	29.763 
00:30	64.5	64.5	64.5	82	58.9	0	2	68	0.00	29.762 
00:35	64.7	64.7	64.7	82	59.1	0	1	68	0.00	29.762 
00:40	64.7	64.7	64.7	82	59.1	0	1	68	0.00	29.762 
00:45	64.7	64.7	64.7	82	59.1	0	4	68	0.00	29.754 
00:50	64.7	64.7	64.7	83	59.4	0	1	68	0.00	29.754 
00:55	64.7	64.7	64.7	83	59.4	0	2	68	0.00	29.754 
01:00	64.5	64.5	64.5	83	59.2	1	2	90	0.00	29.747 
01:05	64.5	64.5	64.5	83	59.2	0	2	90	0.00	29.747 
01:10	64.5	64.5	64.5	83	59.2	1	2	90	0.00	29.747 
01:15	64.5	64.5	64.5	83	59.2	0	1	90	0.00	29.743 
01:20	64.5	64.5	64.5	83	59.2	1	4	90	0.00	29.743 
01:25	64.5	64.5	64.5	83	59.2	0	3	90	0.00	29.743 
01:30	64.5	64.5	64.5	83	59.2	0	3	90	0.00	29.737 
01:35	64.5	64.5	64.5	83	59.2	1	2	90	0.00	29.737 
01:40	64.5	64.5	64.5	83	59.2	0	2	90	0.00	29.737 
01:45	64.5	64.5	64.5	83	59.2	0	4	90	0.00	29.731 
01:50	64.7	64.7	64.7	83	59.4	1	6	112	0.00	29.731 
01:55	64.5	64.5	64.5	83	59.2	1	4	112	0.00	29.731 
02:00	64.5	64.5	64.5	84	59.6	0	2	112	0.00	29.723 
02:05	64.5	64.5	64.5	84	59.6	0	2	112	0.00	29.723 
02:10	64.5	64.5	64.5	84	59.6	0	3	112	0.00	29.723 
02:15	64.5	64.5	64.5	84	59.6	0	4	112	0.00	29.717 
02:20	64.3	64.3	64.3	84	59.4	0	4	135	0.00	29.717 
02:25	64.3	64.3	64.3	85	59.7	0	2	135	0.00	29.717 
02:30	64.2	64.2	64.2	85	59.6	0	2	135	0.00	29.713 
02:35	64.2	64.2	64.2	86	59.9	0	4	135	0.00	29.713 
02:40	64.2	64.2	64.2	86	59.9	0	2	135	0.00	29.713 
02:45	64.2	64.2	64.2	86	59.9	0	4	135	0.00	29.712 
02:50	64.2	64.2	64.2	86	59.9	0	1	112	0.00	29.712 
02:55	64.0	64.0	64.0	87	60.0	0	1	112	0.00	29.712 
03:00	64.2	64.2	64.2	87	60.2	0	3	90	0.00	29.709 
03:05	64.2	64.2	64.2	87	60.2	0	1	90	0.00	29.709 
03:10	64.2	64.2	64.2	87	60.2	0	1	90	0.00	29.709 
03:15	64.2	64.2	64.2	87	60.2	0	2	90	0.00	29.709 
03:20	64.2	64.2	64.2	88	60.6	0	1	90	0.00	29.709 
03:25	64.2	64.2	64.2	88	60.6	0	2	90	0.00	29.709 
03:30	64.2	64.2	64.2	88	60.6	0	1	90	0.00	29.705 
03:35	64.2	64.2	64.2	88	60.6	0	2	90	0.00	29.705 
03:40	64.2	64.2	64.2	88	60.6	0	2	90	0.00	29.705 
03:45	64.2	64.2	64.2	88	60.6	0	2	90	0.00	29.707 
03:50	64.2	64.2	64.2	88	60.6	0	1	90	0.00	29.707 
03:55	64.2	64.2	64.2	88	60.6	0	3	22	0.00	29.707 
04:00	64.3	64.3	64.3	88	60.7	0	1	225	0.00	29.706 
04:05	64.3	64.3	64.3	88	60.7	0	2	225	0.00	29.706 
04:10	64.3	64.3	64.3	89	61.0	0	1	225	0.00	29.706 
04:15	64.3	64.3	64.3	89	61.0	0	2	225	0.00	29.703 
04:20	64.3	64.3	64.3	89	61.0	0	1	225	0.00	29.703 
04:25	64.5	64.5	64.5	89	61.2	0	2	225	0.00	29.703 
04:30	64.5	64.5	64.5	89	61.2	0	1	225	0.01	29.705 
04:35	64.5	64.5	64.5	90	61.5	0	2	225	0.00	29.705 
04:40	64.5	64.5	64.5	90	61.5	0	1	225	0.00	29.705 
04:45	64.5	64.5	64.5	90	61.5	0	2	225	0.00	29.710 
04:50	64.5	64.5	64.5	90	61.5	0	1	225	0.00	29.710 
04:55	64.5	64.5	64.5	90	61.5	0	1	225	0.00	29.710 
05:00	64.5	64.5	64.5	91	61.8	0	1	225	0.00	29.709 
05:05	64.5	64.5	64.5	91	61.8	0	0	---	0.00	29.709 
05:10	64.5	64.5	64.5	91	61.8	0	1	225	0.00	29.709 
05:15	64.5	64.5	64.5	91	61.8	0	1	225	0.00	29.710 
05:20	64.5	64.5	64.5	91	61.8	0	1	225	0.00	29.710 
05:25	64.5	64.5	64.5	91	61.8	0	0	---	0.00	29.710 
05:30	64.5	64.5	64.5	91	61.8	0	0	---	0.00	29.715 
05:35	64.5	64.5	64.5	91	61.8	0	0	---	0.00	29.715 
05:40	64.5	64.5	64.5	91	61.8	0	1	225	0.00	29.715 
05:45	64.5	64.5	64.5	91	61.8	0	1	225	0.00	29.713 
05:50	64.5	64.5	64.5	91	61.8	0	1	225	0.00	29.713 
05:55	64.3	64.3	64.3	92	61.9	0	1	225	0.00	29.713 
06:00	64.5	64.5	64.5	92	62.1	0	1	225	0.00	29.726 
06:05	64.5	64.5	64.5	92	62.1	0	1	225	0.00	29.726 
06:10	64.5	64.5	64.5	92	62.1	0	1	225	0.00	29.726 
06:15	64.5	64.5	64.5	92	62.1	0	1	225	0.00	29.726 
06:20	64.5	64.5	64.5	92	62.1	0	1	225	0.00	29.726 
06:25	64.5	64.5	64.5	92	62.1	0	2	225	0.00	29.726 
06:30	64.5	64.5	64.5	92	62.1	0	1	225	0.00	29.726 
06:35	64.3	64.3	64.3	92	61.9	0	2	225	0.00	29.726 
06:40	64.3	64.3	64.3	92	61.9	0	1	225	0.00	29.726 
06:45	64.3	64.3	64.3	92	61.9	0	1	225	0.00	29.730 
06:50	64.2	64.2	64.2	92	61.8	0	2	225	0.00	29.730 
06:55	64.2	64.2	64.2	92	61.8	0	2	225	0.00	29.730 
07:00	64.3	64.3	64.3	92	61.9	0	1	225	0.00	29.735 
07:05	64.3	64.3	64.3	92	61.9	0	2	225	0.00	29.735 
07:10	64.5	64.5	64.5	92	62.1	0	2	225	0.00	29.735 
07:15	64.7	64.7	64.7	92	62.3	1	3	225	0.00	29.740 
07:20	64.8	64.8	64.8	91	62.1	0	3	225	0.00	29.740 
07:25	65.0	65.0	65.0	91	62.3	1	3	225	0.00	29.740 
07:30	65.2	65.2	65.2	89	61.9	1	2	225	0.00	29.742 
07:35	65.2	65.2	65.2	88	61.6	1	3	270	0.00	29.742 
07:40	65.3	65.3	65.3	87	61.3	1	4	270	0.00	29.742 
07:45	65.5	65.5	65.5	87	61.5	1	3	270	0.00	29.742 
07:50	65.5	65.5	65.5	86	61.2	2	4	270	0.00	29.742 
07:55	65.8	65.8	65.8	86	61.5	0	3	270	0.00	29.742 
08:00	65.8	65.8	65.8	85	61.2	1	4	270	0.00	29.743 
08:05	66.0	66.0	66.0	85	61.4	1	4	270	0.00	29.743 
08:10	66.4	66.4	66.4	85	61.7	1	2	270	0.00	29.743 
08:15	66.9	66.9	66.9	84	61.9	1	3	270	0.00	29.750 
08:20	67.3	67.3	67.3	83	62.0	1	3	270	0.00	29.750 
08:25	67.4	67.4	67.4	82	61.7	1	3	270	0.00	29.750 
08:30	67.6	67.6	67.6	81	61.6	1	4	270	0.00	29.751 
08:35	67.6	67.6	67.6	81	61.6	1	3	270	0.00	29.751 
08:40	67.9	67.9	67.9	81	61.8	1	3	270	0.00	29.751 
08:45	68.3	68.3	68.3	80	61.9	1	2	270	0.00	29.750 
08:50	68.4	68.4	68.4	80	62.0	1	3	270	0.00	29.750 
08:55	68.6	68.6	68.6	80	62.2	1	4	270	0.00	29.750 
09:00	68.9	68.9	68.9	79	62.1	2	3	270	0.00	29.747 
09:05	69.1	69.1	69.1	77	61.6	2	5	270	0.00	29.747 
09:10	68.9	68.9	68.9	77	61.4	2	4	270	0.00	29.747 
09:15	68.8	68.8	68.8	78	61.7	2	4	270	0.00	29.753 
09:20	68.8	68.8	68.8	79	62.0	1	2	270	0.00	29.753 
09:25	68.8	68.8	68.8	79	62.0	1	4	270	0.00	29.753 
09:30	68.9	68.9	68.9	79	62.1	1	4	270	0.00	29.758 
09:35	68.9	68.9	68.9	79	62.1	1	4	270	0.00	29.758 
09:40	68.9	68.9	68.9	79	62.1	1	2	270	0.00	29.758 
09:45	68.8	68.8	68.8	80	62.4	1	2	270	0.00	29.764 
09:50	68.6	68.6	68.6	79	61.8	1	3	270	0.00	29.764 
09:55	68.6	68.6	68.6	80	62.2	1	3	270	0.00	29.764 
10:00	68.4	68.4	68.4	80	62.0	1	4	292	0.00	29.763 
10:05	68.4	68.4	68.4	79	61.6	2	4	292	0.00	29.763 
10:10	68.3	68.3	68.3	79	61.5	2	5	292	0.00	29.763 
10:15	68.3	68.3	68.3	79	61.5	2	5	292	0.00	29.770 
10:20	68.3	68.3	68.3	79	61.5	2	5	270	0.00	29.770 
10:25	68.4	68.4	68.4	79	61.6	2	4	270	0.00	29.770 
10:30	68.8	68.8	68.8	79	62.0	2	5	270	0.00	29.770 
10:35	68.9	68.9	68.9	77	61.4	2	5	270	0.00	29.770 
10:40	68.8	68.8	68.8	78	61.7	2	4	270	0.00	29.770 
10:45	68.4	68.4	68.4	77	60.9	2	4	292	0.00	29.769 
10:50	68.3	68.3	68.3	76	60.4	2	6	270	0.00	29.769 
10:55	68.1	68.1	68.1	79	61.3	1	3	270	0.00	29.769 
11:00	67.8	67.8	67.8	80	61.4	1	5	270	0.00	29.767 
11:05	68.1	68.1	68.1	81	62.0	2	4	292	0.00	29.767 
11:10	68.4	68.4	68.4	78	61.3	3	7	270	0.00	29.767 
11:15	68.4	68.4	68.4	76	60.5	3	6	270	0.00	29.770 
11:20	68.3	68.3	68.3	77	60.8	2	5	270	0.00	29.770 
11:25	67.9	67.9	67.9	77	60.4	1	5	270	0.00	29.770 
11:30	67.4	67.4	67.4	78	60.3	2	5	270	0.00	29.772 
11:35	66.9	66.9	66.9	81	60.9	2	5	270	0.00	29.772 
11:40	66.8	66.8	66.8	84	61.8	1	4	270	0.01	29.772 
11:45	66.3	66.3	66.3	83	61.0	1	4	270	0.00	29.774 
11:50	66.0	66.0	66.0	83	60.7	0	2	270	0.00	29.774 
11:55	65.6	65.6	65.6	83	60.3	1	3	270	0.00	29.774 
12:00	65.5	65.5	65.5	84	60.5	1	3	270	0.00	29.789 
12:05	65.2	65.2	65.2	85	60.6	1	3	338	0.00	29.789 
12:10	65.0	65.0	65.0	87	61.0	0	3	338	0.00	29.789 
12:15	65.5	65.5	65.5	87	61.5	0	2	270	0.00	29.792 
12:20	65.5	65.5	65.5	87	61.5	1	4	270	0.00	29.792 
12:25	65.2	65.2	65.2	85	60.6	1	4	270	0.01	29.792 
12:30	64.7	64.7	64.7	86	60.4	1	2	270	0.01	29.795 
12:35	64.3	64.3	64.3	87	60.3	0	1	270	0.00	29.795 
12:40	64.2	64.2	64.2	88	60.6	0	2	270	0.01	29.795 
12:45	64.3	64.3	64.3	89	61.0	0	2	270	0.00	29.799 
12:50	64.3	64.3	64.3	89	61.0	0	3	270	0.00	29.799 
12:55	64.2	64.2	64.2	89	60.9	0	2	270	0.00	29.799 
13:00	64.2	64.2	64.2	89	60.9	0	1	270	0.00	29.804 
13:05	64.0	64.0	64.0	89	60.7	0	2	270	0.00	29.804 
13:10	64.0	64.0	64.0	89	60.7	0	1	270	0.00	29.804 
13:15	63.9	63.9	63.9	89	60.6	0	2	270	0.00	29.806 
13:20	63.9	63.9	63.9	89	60.6	0	2	270	0.00	29.806 
13:25	63.9	63.9	63.9	90	60.9	0	2	270	0.00	29.806 
13:30	63.7	63.7	63.7	90	60.7	0	2	270	0.00	29.806 
13:35	63.7	63.7	63.7	90	60.7	0	2	270	0.00	29.806 
13:40	64.2	64.2	64.2	91	61.5	0	2	270	0.01	29.806 
13:45	64.7	64.7	64.7	91	62.0	0	2	270	0.00	29.805 
13:50	65.0	65.0	65.0	90	62.0	1	2	270	0.00	29.805 
13:55	65.6	65.6	65.6	90	62.6	1	3	270	0.00	29.805 
14:00	66.3	66.3	66.3	89	63.0	0	1	270	0.00	29.799 
14:05	66.4	66.4	66.4	86	62.1	1	5	270	0.00	29.799 
14:10	67.1	67.1	67.1	85	62.4	1	5	270	0.00	29.799 
14:15	67.8	67.8	67.8	82	62.1	1	3	292	0.00	29.797 
14:20	68.1	68.1	68.1	80	61.7	2	5	292	0.00	29.797 
14:25	68.8	68.8	68.8	81	62.7	1	3	292	0.00	29.797 
14:30	69.6	69.6	69.6	76	61.7	2	5	292	0.00	29.789 
14:35	69.9	69.9	69.9	75	61.6	2	4	292	0.00	29.789 
14:40	70.3	70.3	70.3	73	61.2	2	6	270	0.00	29.789 
14:45	70.8	70.8	70.8	74	62.1	2	5	270	0.00	29.785 
14:50	70.6	70.6	70.6	69	59.9	3	7	270	0.00	29.785 
14:55	71.1	71.1	71.1	70	60.8	3	6	270	0.00	29.785 
15:00	71.8	71.8	71.8	70	61.5	2	5	292	0.00	29.775 
15:05	72.1	72.1	72.1	67	60.5	3	9	270	0.00	29.775 
15:10	71.8	71.8	71.8	69	61.1	3	5	315	0.00	29.775 
15:15	71.6	71.6	71.6	67	60.0	3	7	292	0.00	29.780 
15:20	71.6	71.6	71.6	69	60.9	2	5	292	0.00	29.780 
15:25	72.1	72.1	72.1	68	60.9	3	7	270	0.00	29.780 
15:30	72.3	72.3	72.3	65	59.9	2	6	270	0.00	29.781 
15:35	72.0	72.0	72.0	65	59.6	3	6	270	0.00	29.781 
15:40	71.5	71.5	71.5	65	59.1	3	6	270	0.00	29.781 
15:45	71.8	71.8	71.8	66	59.8	3	5	270	0.00	29.785 
15:50	72.0	72.0	72.0	65	59.6	3	5	270	0.00	29.785 
15:55	72.5	72.5	72.5	65	60.0	3	6	270	0.00	29.785 
16:00	72.5	72.5	72.5	64	59.6	3	5	270	0.00	29.785 
16:05	72.7	72.7	72.7	63	59.4	4	8	270	0.00	29.785 
16:10	73.0	73.0	73.0	64	60.1	3	6	270	0.00	29.785 
16:15	73.3	73.3	73.3	64	60.4	3	7	270	0.00	29.784 
16:20	73.9	73.9	73.9	63	60.5	3	6	270	0.00	29.784 
16:25	74.0	74.0	74.0	61	59.7	2	5	270	0.00	29.784 
16:30	74.0	74.0	74.0	61	59.7	4	7	270	0.00	29.783 
16:35	74.0	74.0	74.0	62	60.1	2	5	270	0.00	29.783 
16:40	74.2	74.2	74.2	61	59.9	3	5	270	0.00	29.783 
16:45	74.6	74.6	74.6	60	59.8	3	6	270	0.00	29.782 
16:50	74.6	74.6	74.6	59	59.3	3	6	292	0.00	29.782 
16:55	74.2	74.2	74.2	59	58.9	3	5	292	0.00	29.782 
17:00	74.2	74.2	74.2	60	59.4	3	6	292	0.00	29.784 
17:05	74.2	74.2	74.2	59	58.9	2	9	292	0.00	29.784 
17:10	73.9	73.9	73.9	61	59.6	2	4	292	0.00	29.784 
17:15	73.7	73.7	73.7	60	58.9	3	6	270	0.00	29.784 
17:20	73.3	73.3	73.3	61	59.0	3	7	315	0.00	29.784 
17:25	73.3	73.3	73.3	62	59.5	2	5	270	0.00	29.784 
17:30	73.9	73.9	73.9	62	60.0	2	4	292	0.00	29.784 
17:35	74.0	74.0	74.0	62	60.1	2	5	270	0.00	29.784 
17:40	73.7	73.7	73.7	61	59.4	4	7	270	0.00	29.784 
17:45	73.3	73.3	73.3	62	59.5	4	7	270	0.00	29.785 
17:50	73.5	73.5	73.5	62	59.7	3	9	270	0.00	29.785 
17:55	73.9	73.9	73.9	62	60.0	3	6	270	0.00	29.785 
18:00	73.7	73.7	73.7	62	59.9	3	5	270	0.00	29.782 
18:05	73.3	73.3	73.3	63	59.9	2	5	270	0.00	29.782 
18:10	73.5	73.5	73.5	64	60.6	1	3	270	0.00	29.782 
18:15	73.3	73.3	73.3	63	59.9	2	5	292	0.00	29.782 
18:20	73.5	73.5	73.5	63	60.1	3	5	270	0.00	29.782 
18:25	73.3	73.3	73.3	64	60.4	2	5	270	0.00	29.782 
18:30	73.2	73.2	73.2	64	60.3	2	4	292	0.00	29.785 
18:35	73.2	73.2	73.2	65	60.7	2	4	292	0.00	29.785 
18:40	72.8	72.8	72.8	65	60.3	2	4	292	0.00	29.785 
18:45	72.7	72.7	72.7	66	60.7	2	7	270	0.00	29.790 
18:50	72.5	72.5	72.5	65	60.0	2	4	315	0.00	29.790 
18:55	72.3	72.3	72.3	66	60.3	2	5	270	0.00	29.790 
19:00	72.1	72.1	72.1	66	60.1	1	3	292	0.00	29.796 
19:05	72.0	72.0	72.0	67	60.4	2	4	292	0.00	29.796 
19:10	72.0	72.0	72.0	67	60.4	1	3	292	0.00	29.796 
19:15	72.0	72.0	72.0	67	60.4	1	2	292	0.00	29.794 
19:20	72.1	72.1	72.1	68	60.9	1	3	292	0.00	29.794 
19:25	72.0	72.0	72.0	67	60.4	1	4	292	0.00	29.794 
19:30	71.8	71.8	71.8	68	60.7	1	3	292	0.00	29.798 
19:35	71.8	71.8	71.8	69	61.1	0	2	292	0.00	29.798 
19:40	71.6	71.6	71.6	68	60.5	0	2	292	0.00	29.798 
19:45	71.5	71.5	71.5	69	60.8	1	2	292	0.00	29.799 
19:50	71.5	71.5	71.5	69	60.8	0	2	292	0.00	29.799 
19:55	71.3	71.3	71.3	69	60.6	0	1	292	0.00	29.799 
20:00	71.3	71.3	71.3	69	60.6	0	1	292	0.00	29.801 
20:05	71.3	71.3	71.3	69	60.6	0	1	292	0.00	29.801 
20:10	71.3	71.3	71.3	69	60.6	0	1	292	0.00	29.801 
20:15	71.3	71.3	71.3	69	60.6	0	0	---	0.00	29.803 
20:20	71.1	71.1	71.1	69	60.4	0	1	292	0.00	29.803 
20:25	71.3	71.3	71.3	69	60.6	0	0	---	0.00	29.803 
20:30	71.3	71.3	71.3	69	60.6	0	0	---	0.00	29.799 
20:35	71.3	71.3	71.3	69	60.6	0	0	---	0.00	29.799 
20:40	71.3	71.3	71.3	69	60.6	0	0	---	0.00	29.799 
20:45	71.3	71.3	71.3	69	60.6	0	0	---	0.00	29.796 
20:50	71.3	71.3	71.3	69	60.6	0	0	---	0.00	29.796 
20:55	71.1	71.1	71.1	70	60.8	0	0	---	0.00	29.796 
21:00	70.8	70.8	70.8	70	60.5	0	0	---	0.00	29.796 
21:05	70.6	70.6	70.6	71	60.7	0	0	---	0.00	29.796 
21:10	70.3	70.3	70.3	72	60.8	0	0	---	0.00	29.796 
21:15	69.9	69.9	69.9	73	60.8	0	0	---	0.00	29.791 
21:20	69.6	69.6	69.6	74	60.9	0	0	---	0.00	29.791 
21:25	69.4	69.4	69.4	74	60.7	0	0	---	0.00	29.791 
21:30	69.1	69.1	69.1	75	60.8	0	0	---	0.00	29.789 
21:35	68.8	68.8	68.8	76	60.9	0	0	---	0.00	29.789 
21:40	68.4	68.4	68.4	77	60.9	0	0	---	0.00	29.789 
21:45	68.1	68.1	68.1	78	61.0	0	0	---	0.00	29.787 
21:50	67.8	67.8	67.8	78	60.7	0	0	---	0.00	29.787 
21:55	67.4	67.4	67.4	79	60.7	0	0	---	0.00	29.787 
22:00	66.9	66.9	66.9	80	60.5	0	0	---	0.00	29.791 
22:05	66.4	66.4	66.4	82	60.7	0	0	---	0.00	29.791 
22:10	66.1	66.1	66.1	83	60.8	0	0	---	0.00	29.791 
22:15	65.6	65.6	65.6	84	60.6	0	0	---	0.00	29.787 
22:20	65.3	65.3	65.3	85	60.7	0	0	---	0.00	29.787 
22:25	65.0	65.0	65.0	85	60.4	0	0	---	0.00	29.787 
22:30	64.8	64.8	64.8	86	60.5	0	0	---	0.00	29.794 
22:35	64.5	64.5	64.5	86	60.2	0	0	---	0.00	29.794 
22:40	64.3	64.3	64.3	86	60.0	0	0	---	0.00	29.794 
22:45	64.2	64.2	64.2	87	60.2	0	0	---	0.00	29.797 
22:50	64.0	64.0	64.0	87	60.0	0	0	---	0.00	29.797 
22:55	63.7	63.7	63.7	88	60.1	0	0	---	0.00	29.797 
23:00	63.5	63.5	63.5	88	59.9	0	0	---	0.00	29.798 
23:05	63.4	63.4	63.4	89	60.1	0	0	---	0.00	29.798 
23:10	63.2	63.2	63.2	89	59.9	0	0	---	0.00	29.798 
23:15	63.1	63.1	63.1	89	59.8	0	0	---	0.00	29.805 
23:20	62.9	62.9	62.9	89	59.6	0	0	---	0.00	29.805 
23:25	62.7	62.7	62.7	90	59.7	0	0	---	0.00	29.805 
23:30	62.6	62.6	62.6	90	59.6	0	0	---	0.00	29.804 
23:35	62.4	62.4	62.4	90	59.4	0	0	---	0.00	29.804 
23:40	62.3	62.3	62.3	91	59.6	0	0	---	0.00	29.804 
23:45	62.1	62.1	62.1	91	59.4	0	0	---	0.00	29.807 
23:50	62.1	62.1	62.1	91	59.4	0	0	---	0.00	29.807 
23:55	62.0	62.0	62.0	91	59.3	0	0	---	0.00	29.807 

CoCoRaHS
IN-AL-39
A2 Web Hosting
Creative Commons License
GoDaddy
search engine by freefind advanced

loaded 2018-11-18 11:45:21 • last modified 2010-11-18 10:43:29
Privacy PolicyDisclaimer
• wx.awcolley.com is powered by PmWiki v.2002016 •
• all content (unless otherwise noted) © 2018 A W Colley